[[{"header":{"parameterUnit":"m.s-1","parameterCategory":2,"la1":30.2991,"la2":30.254,"lo1":-89.0895,"lo2":-89.0444,"dy":0.0017,"dx":0.0017,"nx":28,"ny":28,"refTime":"2024-05-05T03:00:00:Z","depth":"0","parameterNumber":2,"parameterNumberName":"U-component_of_CURRENTS"},"data":[0,0,0,0,0,0,0,0,0,0,0,0,0,0,0,0,0,0,0,0,0,0,0,0,0,0,0,0,0,0,0,0,0,0,0,0,0,0,0,0,0,0,0,0,0,0,0,0,0,0,0,0,0,0,0,0,0,0,-0.2545,-0.2545,0,-0.2566,-0.2566,-0.2566,-0.2527,-0.2525,-0.2524,-0.2523,-0.2476,-0.2476,-0.2476,0,0,0,0,0,0,0,0,0,0,0,0,0,-0.2519,-0.2519,-0.2545,-0.2545,-0.2546,-0.2566,-0.2566,-0.2566,-0.2527,-0.2525,-0.2524,-0.2523,-0.2476,-0.2476,-0.2476,0,0,0,0,0,0,0,0,0,0,0,0,0,-0.2533,-0.2519,-0.2545,-0.253,-0.2528,-0.2566,-0.2566,-0.2566,-0.2527,-0.2525,-0.2524,-0.2522,-0.2476,-0.2476,-0.2475,-0.251,0,0,-0.2475,-0.2475,0,0,0,0,0,0,0,0,-0.2532,-0.2533,-0.2531,-0.2531,-0.253,-0.2543,-0.2539,-0.2544,-0.2528,-0.2526,-0.2523,-0.2521,-0.2494,-0.2492,-0.2499,-0.2507,-0.2505,-0.2475,-0.2475,-0.2475,-0.2474,0,0,0,0,0,0,0,-0.2531,-0.2533,-0.2552,-0.2532,-0.2531,-0.2538,-0.2537,-0.2541,-0.2518,-0.2526,-0.2524,-0.2529,-0.2493,-0.25,-0.2498,-0.2505,-0.2475,-0.2475,-0.2474,-0.2474,-0.2552,-0.2554,0,0,0,0,0,0,-0.2531,-0.2532,-0.2551,-0.2553,-0.2528,-0.254,-0.2539,-0.2539,-0.2519,-0.2515,-0.253,-0.2527,-0.2501,-0.2498,-0.2496,-0.2537,-0.2475,-0.2474,-0.2474,-0.2549,-0.2552,-0.2554,0,0,0,0,0,0,-0.253,-0.2532,-0.255,-0.2544,-0.2547,-0.2542,-0.2543,-0.2541,-0.2539,-0.2523,-0.2517,-0.2529,-0.2499,-0.2496,-0.2509,-0.2534,-0.2474,-0.2474,-0.2547,-0.255,-0.2553,-0.2617,0,0,0,0,0,0,-0.2529,-0.2532,-0.2531,-0.2544,-0.2547,-0.2574,-0.2545,-0.2542,-0.2546,-0.2541,-0.2521,-0.2515,-0.2498,-0.251,-0.2509,-0.2533,-0.2474,-0.2544,-0.2548,-0.2552,-0.2613,-0.2623,-0.2631,0,0,0,0,0,-0.2528,-0.2539,-0.253,-0.2533,-0.2546,-0.2575,-0.2578,-0.2568,-0.2548,-0.2557,-0.2549,-0.2515,-0.2535,-0.2512,-0.251,-0.2534,-0.2542,-0.2547,-0.2552,-0.2608,-0.2621,-0.2631,0,0,0,0,0,0,-0.2528,-0.2537,-0.2527,-0.2539,-0.2555,-0.2569,-0.2576,-0.2572,-0.2575,-0.2565,-0.2542,-0.2538,-0.2559,-0.2546,-0.2521,-0.2572,-0.2534,-0.2539,-0.2578,-0.2589,-0.2598,-0.2598,-0.2474,0,0,0,0,0,-0.2529,-0.2534,-0.2549,-0.2557,-0.2566,-0.2571,-0.2579,-0.2577,-0.2584,-0.2582,-0.257,-0.2568,-0.2583,-0.2583,-0.2588,-0.2616,-0.2583,-0.2634,-0.2643,-0.2651,-0.2653,-0.264,-0.2648,-0.2571,-0.2571,-0.257,0,0,-0.253,-0.2536,-0.2538,-0.2558,-0.2564,-0.2592,-0.2571,-0.2589,-0.2615,-0.2578,-0.26,-0.2596,-0.2599,-0.2631,-0.2639,-0.2619,-0.2654,-0.2657,-0.2663,-0.2661,-0.2646,-0.2653,-0.266,-0.2574,-0.2573,-0.2573,0,0,-0.2546,-0.2542,-0.2555,-0.2573,-0.2592,-0.2605,-0.2611,-0.2628,-0.2635,-0.2665,-0.265,-0.2669,-0.2676,-0.2694,-0.2703,-0.2772,-0.2703,-0.2766,-0.281,-0.2799,-0.2804,-0.2808,-0.2761,-0.276,-0.277,-0.2771,-0.2771,0,-0.2546,-0.2564,-0.2566,-0.2591,-0.2609,-0.2612,-0.2643,-0.2665,-0.2684,-0.2696,-0.2677,-0.2707,-0.2715,-0.276,-0.2793,-0.2791,-0.2751,-0.2763,-0.2808,-0.2812,-0.2815,-0.2765,-0.2764,-0.2774,-0.2774,-0.2774,-0.2773,0,-0.2575,-0.2592,-0.2606,-0.2635,-0.2659,-0.2686,-0.2719,-0.2741,-0.2745,-0.2757,-0.2789,-0.2801,-0.2812,-0.2831,-0.2837,-0.2875,-0.2826,-0.2817,-0.2772,-0.2826,-0.277,-0.2768,-0.278,-0.2778,-0.2777,-0.2776,0,0,-0.257,-0.2616,-0.2621,-0.2636,-0.2684,-0.2704,-0.276,-0.2805,-0.2818,-0.2843,-0.2858,-0.292,-0.29,-0.2912,-0.2913,-0.2921,-0.2925,-0.2883,-0.2881,-0.2821,-0.2858,-0.2722,-0.2705,-0.2908,-0.2909,-0.2909,-0.2803,0,-0.2592,-0.2636,-0.2664,-0.2712,-0.2734,-0.2768,-0.281,-0.2849,-0.2869,-0.2883,-0.291,-0.2919,-0.2938,-0.293,-0.2951,-0.2933,-0.2923,-0.2952,-0.2827,-0.2823,-0.2684,-0.2701,-0.2594,-0.2481,-0.28,-0.28,-0.2799,0,-0.2614,-0.2637,-0.2681,-0.2731,-0.2744,-0.2776,-0.2824,-0.2863,-0.2901,-0.2909,-0.2929,-0.2926,-0.2966,-0.2953,-0.2948,-0.2956,-0.2916,-0.2894,-0.2889,-0.2737,-0.2683,-0.2484,-0.2464,-0.2451,-0.2794,-0.2795,-0.2795,0,-0.2591,-0.2654,-0.2682,-0.2701,-0.2756,-0.2783,-0.2816,-0.2861,-0.2875,-0.2908,-0.2893,-0.2936,-0.2922,-0.2918,-0.289,-0.2912,-0.2839,-0.2859,-0.2692,-0.268,-0.2553,-0.2529,-0.2493,-0.2831,-0.2831,-0.2832,-0.2832,0,-0.26,-0.2623,-0.2667,-0.2678,-0.2709,-0.2754,-0.2778,-0.282,-0.284,-0.2822,-0.2885,-0.2861,-0.2909,-0.2875,-0.2867,-0.2753,-0.2815,-0.2689,-0.2646,-0.257,-0.255,-0.2503,-0.2533,-0.2828,-0.2829,-0.2829,-0.283,0,-0.2566,-0.2601,-0.2628,-0.2678,-0.2694,-0.2708,-0.2747,-0.2747,-0.2779,-0.2752,-0.2752,-0.2792,-0.2742,-0.2748,-0.2715,-0.2681,-0.2553,-0.255,-0.2437,-0.2383,-0.2219,-0.2256,-0.2143,-0.2087,-0.2359,-0.2355,-0.2351,0,-0.2551,-0.2555,-0.2604,-0.2605,-0.2626,-0.265,-0.2653,-0.2708,-0.2697,-0.2687,-0.2657,-0.2622,-0.2552,-0.2458,-0.2407,-0.2321,-0.2364,-0.2171,-0.2211,-0.2179,-0.2192,-0.2225,-0.219,-0.2067,-0.2062,-0.2057,-0.2054,0,-0.2503,-0.2516,-0.2529,-0.2527,-0.2536,-0.2544,-0.2553,-0.253,-0.2549,-0.2502,-0.2408,-0.2348,-0.2268,-0.2144,-0.206,-0.2016,-0.2113,-0.2073,-0.2088,-0.1991,-0.1979,-0.1912,-0.2156,-0.2015,-0.2019,-0.2021,-0.2024,-0.2025,-0.2448,-0.2442,-0.2439,-0.2432,-0.2439,-0.24,-0.2337,-0.2317,-0.224,-0.2114,-0.2153,-0.2022,-0.1974,-0.1837,-0.1783,-0.1684,-0.1776,-0.1668,-0.1722,-0.1761,-0.1693,-0.182,-0.1604,-0.1606,-0.1607,-0.1608,-0.1609,0,-0.2367,-0.2355,-0.2337,-0.2318,-0.2273,-0.2306,-0.223,-0.2108,-0.1936,-0.1889,-0.1762,-0.1684,-0.1562,-0.156,-0.1466,-0.1388,-0.1393,-0.1375,-0.1443,-0.143,-0.1569,-0.1542,-0.1245,-0.1245,-0.1245,-0.1245,-0.1245,-0.1245,-0.232,-0.2266,-0.225,-0.2144,-0.2121,-0.1981,-0.1892,-0.1708,-0.1616,-0.1416,-0.1379,-0.1415,-0.1417,-0.1469,-0.1358,-0.1283,-0.1294,-0.1215,-0.1272,-0.1431,-0.1466,-0.1499,-0.1481,-0.1176,-0.1176,-0.1083,-0.1082,-0.1082]},{"header":{"parameterUnit":"m.s-1","parameterCategory":2,"la1":30.2991,"la2":30.254,"lo1":-89.0895,"lo2":-89.0444,"dy":0.0017,"dx":0.0017,"nx":28,"ny":28,"refTime":"2024-05-05T03:00:00:Z","depth":"0","parameterNumber":3,"parameterNumberName":"V-component_of_CURRENTS"},"data":[0,0,0,0,0,0,0,0,0,0,0,0,0,0,0,0,0,0,0,0,0,0,0,0,0,0,0,0,0,0,0,0,0,0,0,0,0,0,0,0,0,0,0,0,0,0,0,0,0,0,0,0,0,0,0,0,0,0,-0.05,-0.05,0,-0.0464,-0.0463,-0.0463,-0.0454,-0.0454,-0.0454,-0.0455,-0.0387,-0.0385,-0.0383,0,0,0,0,0,0,0,0,0,0,0,0,0,-0.0502,-0.0502,-0.05,-0.05,-0.05,-0.0464,-0.0463,-0.0463,-0.0453,-0.0454,-0.0454,-0.0455,-0.0388,-0.0385,-0.0383,0,0,0,0,0,0,0,0,0,0,0,0,0,-0.0486,-0.0502,-0.05,-0.0492,-0.0491,-0.0464,-0.0463,-0.0462,-0.0453,-0.0454,-0.0454,-0.0455,-0.0389,-0.0386,-0.0382,-0.0352,0,0,-0.0373,-0.0371,0,0,0,0,0,0,0,0,-0.0487,-0.0486,-0.0493,-0.0492,-0.0491,-0.0465,-0.0439,-0.0424,-0.0453,-0.0466,-0.0455,-0.0455,-0.0411,-0.0406,-0.0396,-0.0348,-0.0346,-0.0372,-0.037,-0.0369,-0.0368,0,0,0,0,0,0,0,-0.0488,-0.0487,-0.0484,-0.0493,-0.0492,-0.0469,-0.0468,-0.0436,-0.0434,-0.0465,-0.0465,-0.0463,-0.041,-0.0399,-0.0394,-0.0345,-0.0372,-0.037,-0.0368,-0.0366,-0.0292,-0.0292,0,0,0,0,0,0,-0.0498,-0.0488,-0.0486,-0.0483,-0.0492,-0.0469,-0.0468,-0.0472,-0.0435,-0.0431,-0.0462,-0.0462,-0.0404,-0.0398,-0.0392,-0.0381,-0.0369,-0.0366,-0.0364,-0.0292,-0.0292,-0.0292,0,0,0,0,0,0,-0.0498,-0.0498,-0.0487,-0.0486,-0.0483,-0.0469,-0.0473,-0.0471,-0.0462,-0.0434,-0.0429,-0.0457,-0.0405,-0.0396,-0.037,-0.0378,-0.0365,-0.0362,-0.0292,-0.0292,-0.0292,-0.0342,0,0,0,0,0,0,-0.0499,-0.0499,-0.0503,-0.0487,-0.0483,-0.0475,-0.0473,-0.047,-0.0461,-0.0461,-0.0427,-0.0422,-0.0404,-0.0375,-0.0367,-0.0373,-0.0359,-0.0292,-0.0292,-0.0292,-0.034,-0.0344,-0.0346,0,0,0,0,0,-0.0499,-0.0504,-0.0504,-0.0503,-0.0491,-0.0475,-0.0471,-0.0462,-0.046,-0.0456,-0.0437,-0.0423,-0.0369,-0.0372,-0.0363,-0.0368,-0.0292,-0.0292,-0.0292,-0.0339,-0.0343,-0.0346,0,0,0,0,0,0,-0.0503,-0.0503,-0.0503,-0.0507,-0.0495,-0.0475,-0.047,-0.0462,-0.0442,-0.0442,-0.0416,-0.0409,-0.0392,-0.0367,-0.0372,-0.0346,-0.033,-0.0328,-0.0369,-0.0372,-0.0375,-0.0391,-0.0356,0,0,0,0,0,-0.0507,-0.0516,-0.0504,-0.0507,-0.0502,-0.0485,-0.0477,-0.0471,-0.0452,-0.0445,-0.0423,-0.0399,-0.0382,-0.0368,-0.0346,-0.0323,-0.0282,-0.0322,-0.0325,-0.0327,-0.0333,-0.0282,-0.0281,-0.0292,-0.0292,-0.0292,0,0,-0.051,-0.0511,-0.0516,-0.0509,-0.0498,-0.0499,-0.0481,-0.0471,-0.0476,-0.0439,-0.0432,-0.0407,-0.0379,-0.0364,-0.0354,-0.0345,-0.0297,-0.0327,-0.033,-0.0334,-0.0282,-0.0281,-0.028,-0.0292,-0.0292,-0.0292,0,0,-0.0522,-0.052,-0.0531,-0.0525,-0.0514,-0.0504,-0.0503,-0.0484,-0.0479,-0.0465,-0.0447,-0.0425,-0.0391,-0.0377,-0.0365,-0.0365,-0.0317,-0.0359,-0.0384,-0.0334,-0.0333,-0.0331,-0.0257,-0.0249,-0.0358,-0.0359,-0.0359,0,-0.0525,-0.0543,-0.0528,-0.0536,-0.054,-0.0511,-0.0523,-0.051,-0.0486,-0.0482,-0.0471,-0.0426,-0.0401,-0.0388,-0.0395,-0.0374,-0.0328,-0.0376,-0.0339,-0.0336,-0.0334,-0.0258,-0.0248,-0.0361,-0.0361,-0.036,-0.036,0,-0.0548,-0.0561,-0.0564,-0.0574,-0.057,-0.0572,-0.0558,-0.055,-0.0539,-0.0525,-0.0505,-0.0465,-0.0442,-0.0429,-0.0415,-0.0391,-0.0356,-0.0351,-0.0332,-0.0336,-0.0255,-0.0244,-0.0364,-0.0364,-0.0363,-0.0362,0,0,-0.0561,-0.058,-0.0582,-0.0603,-0.0594,-0.0597,-0.0599,-0.0596,-0.06,-0.0566,-0.0563,-0.053,-0.0502,-0.0486,-0.0455,-0.0413,-0.0351,-0.038,-0.0376,-0.0311,-0.0218,-0.0143,-0.0123,-0.0339,-0.0338,-0.0337,-0.016,0,-0.0587,-0.0624,-0.0621,-0.0655,-0.0675,-0.0657,-0.0664,-0.0655,-0.0634,-0.0618,-0.0573,-0.0553,-0.0526,-0.0511,-0.0467,-0.0388,-0.0327,-0.0398,-0.022,-0.0214,-0.0152,-0.011,-0.0106,0.0055,-0.0149,-0.0147,-0.0146,0,-0.0615,-0.0641,-0.0683,-0.0716,-0.0721,-0.0733,-0.0743,-0.0744,-0.071,-0.0689,-0.0653,-0.0611,-0.0553,-0.0525,-0.0381,-0.0427,-0.0328,-0.0255,-0.0246,-0.0156,-0.012,0.0022,0.0083,0.02,-0.0128,-0.0129,-0.0131,0,-0.0652,-0.0686,-0.0728,-0.0739,-0.0761,-0.0779,-0.0788,-0.0769,-0.0768,-0.0729,-0.0707,-0.0638,-0.0588,-0.0478,-0.0329,-0.0354,-0.0147,-0.016,0.0011,0.0018,0.0068,0.0078,0.0255,-0.0042,-0.0042,-0.0042,-0.0043,0,-0.0691,-0.0725,-0.0753,-0.0779,-0.0832,-0.0825,-0.0857,-0.0851,-0.0822,-0.0808,-0.0746,-0.0702,-0.0574,-0.0445,-0.0322,-0.0106,-0.0132,0.0024,0.007,0.0054,0.006,0.02,0.0231,-0.0036,-0.0037,-0.0039,-0.004,0,-0.0729,-0.0744,-0.0803,-0.0841,-0.0854,-0.0895,-0.0914,-0.0929,-0.0885,-0.0859,-0.0845,-0.0734,-0.0561,-0.0399,-0.0193,-0.0077,0.0192,0.0193,0.0182,0.0223,0.0466,0.0493,0.072,0.0796,0.04,0.0403,0.0405,0,-0.075,-0.0784,-0.0854,-0.0899,-0.0923,-0.0969,-0.0996,-0.0973,-0.097,-0.0869,-0.0853,-0.0685,-0.0557,-0.0214,0.0012,0.0273,0.0343,0.044,0.0387,0.0504,0.0568,0.0578,0.0624,0.0446,0.0449,0.0451,0.0452,0,-0.0798,-0.0826,-0.0879,-0.0972,-0.1024,-0.1069,-0.1094,-0.1091,-0.1034,-0.0971,-0.0852,-0.0736,-0.0404,-0.011,0.0235,0.0375,0.0515,0.0493,0.061,0.0624,0.0651,0.0736,0.0321,0.0471,0.0469,0.0468,0.0467,0.0466,-0.0833,-0.0893,-0.0968,-0.1061,-0.1118,-0.116,-0.1172,-0.1152,-0.111,-0.0984,-0.0865,-0.0649,-0.0228,0.0251,0.043,0.0766,0.0715,0.0833,0.0863,0.0869,0.0921,0.0567,0.0764,0.0764,0.0764,0.0763,0.0763,0,-0.088,-0.096,-0.1051,-0.1157,-0.1231,-0.1232,-0.1229,-0.1193,-0.1119,-0.097,-0.082,-0.0355,0.0062,0.0448,0.0932,0.1112,0.1123,0.1181,0.1173,0.1207,0.0899,0.0878,0.1114,0.1113,0.1113,0.1113,0.1113,0.1113,-0.091,-0.1022,-0.1084,-0.1237,-0.1297,-0.1325,-0.1308,-0.1214,-0.1086,-0.0807,-0.0544,-0.0337,0.021,0.0954,0.1374,0.1403,0.1531,0.1515,0.1608,0.1357,0.1325,0.1295,0.1285,0.1602,0.1602,0.1883,0.1885,0.1888]}],[{"header":{"parameterUnit":"m.s-1","parameterCategory":2,"la1":30.2991,"la2":30.254,"lo1":-89.0895,"lo2":-89.0444,"dy":0.0017,"dx":0.0017,"nx":28,"ny":28,"refTime":"2024-05-05T03:00:00:Z","depth":"2","parameterNumber":2,"parameterNumberName":"U-component_of_CURRENTS"},"data":[0,0,0,0,0,0,0,0,0,0,0,0,0,0,0,0,0,0,0,0,0,0,0,0,0,0,0,0,0,0,0,0,0,0,0,0,0,0,0,0,0,0,0,0,0,0,0,0,0,0,0,0,0,0,0,0,0,0,-0.1521,-0.1521,0,-0.1513,-0.1512,-0.1512,-0.1514,-0.1515,-0.1515,-0.1515,-0.1501,-0.15,-0.1499,0,0,0,0,0,0,0,0,0,0,0,0,0,-0.1529,-0.1529,-0.1521,-0.1521,-0.1521,-0.1513,-0.1512,-0.1512,-0.1514,-0.1515,-0.1515,-0.1515,-0.1501,-0.15,-0.1499,0,0,0,0,0,0,0,0,0,0,0,0,0,-0.1523,-0.1529,-0.1521,-0.1522,-0.1522,-0.1513,-0.1512,-0.1512,-0.1514,-0.1515,-0.1515,-0.1516,-0.1501,-0.15,-0.1499,-0.1485,0,0,-0.1496,-0.1496,0,0,0,0,0,0,0,0,-0.1523,-0.1522,-0.1522,-0.1522,-0.1522,-0.1516,-0.151,-0.1503,-0.1514,-0.1516,-0.1515,-0.1516,-0.1506,-0.1504,-0.15,-0.1484,-0.1483,-0.1496,-0.1495,-0.1495,-0.1495,0,0,0,0,0,0,0,-0.1524,-0.1523,-0.1516,-0.1522,-0.1522,-0.152,-0.1519,-0.1509,-0.1507,-0.1516,-0.1516,-0.1517,-0.1506,-0.1501,-0.15,-0.1483,-0.1496,-0.1495,-0.1495,-0.1494,-0.156,-0.1562,0,0,0,0,0,0,-0.1527,-0.1523,-0.1517,-0.1516,-0.1525,-0.1519,-0.1519,-0.1516,-0.1508,-0.1507,-0.1517,-0.1517,-0.1503,-0.1501,-0.1499,-0.1571,-0.1495,-0.1494,-0.1494,-0.1558,-0.156,-0.1563,0,0,0,0,0,0,-0.1527,-0.1526,-0.1517,-0.1521,-0.1519,-0.1519,-0.1516,-0.1516,-0.1523,-0.1509,-0.1508,-0.1525,-0.1503,-0.1501,-0.152,-0.1567,-0.1494,-0.1493,-0.1555,-0.1558,-0.1562,-0.1656,0,0,0,0,0,0,-0.1527,-0.1526,-0.1527,-0.1521,-0.1519,-0.1531,-0.1516,-0.1516,-0.1522,-0.1523,-0.1515,-0.1514,-0.1503,-0.1522,-0.1519,-0.1564,-0.1492,-0.1552,-0.1556,-0.1561,-0.165,-0.1662,-0.1673,0,0,0,0,0,-0.1528,-0.1529,-0.1526,-0.1526,-0.1519,-0.1532,-0.1532,-0.1531,-0.1523,-0.1536,-0.1538,-0.1515,-0.1548,-0.1523,-0.1519,-0.1565,-0.155,-0.1555,-0.156,-0.1645,-0.166,-0.1673,0,0,0,0,0,0,-0.1528,-0.153,-0.1526,-0.1527,-0.1538,-0.1533,-0.1539,-0.1537,-0.1546,-0.1545,-0.1531,-0.1531,-0.1569,-0.1552,-0.1524,-0.16,-0.155,-0.1555,-0.1616,-0.1629,-0.1641,-0.1629,-0.1491,0,0,0,0,0,-0.1529,-0.153,-0.1537,-0.1536,-0.1544,-0.1542,-0.1545,-0.1547,-0.1553,-0.1557,-0.1554,-0.1562,-0.1585,-0.1595,-0.1601,-0.1631,-0.1616,-0.1663,-0.1675,-0.1684,-0.1675,-0.1697,-0.171,-0.158,-0.158,-0.158,0,0,-0.1524,-0.1527,-0.1525,-0.1536,-0.1539,-0.1568,-0.1545,-0.1557,-0.159,-0.1552,-0.1592,-0.1593,-0.1601,-0.1647,-0.1663,-0.164,-0.172,-0.1691,-0.1699,-0.1684,-0.1704,-0.1716,-0.1727,-0.1584,-0.1583,-0.1582,0,0,-0.1526,-0.1525,-0.1533,-0.1555,-0.1571,-0.1581,-0.159,-0.16,-0.1617,-0.1648,-0.1646,-0.1676,-0.1691,-0.1721,-0.1736,-0.1811,-0.1777,-0.1819,-0.1869,-0.1893,-0.1903,-0.1912,-0.1934,-0.1943,-0.1829,-0.1829,-0.1829,0,-0.1521,-0.1538,-0.1539,-0.1567,-0.1593,-0.1595,-0.1629,-0.1651,-0.1669,-0.1691,-0.1675,-0.1726,-0.1732,-0.1805,-0.1839,-0.1837,-0.1835,-0.1816,-0.1906,-0.1914,-0.1922,-0.1942,-0.1951,-0.1834,-0.1834,-0.1833,-0.1833,0,-0.1538,-0.1564,-0.1575,-0.1617,-0.1645,-0.1673,-0.1713,-0.1744,-0.1758,-0.1774,-0.1832,-0.184,-0.1868,-0.1894,-0.1888,-0.1959,-0.1938,-0.1914,-0.1867,-0.194,-0.1957,-0.1965,-0.1842,-0.184,-0.1838,-0.1837,0,0,-0.1492,-0.1572,-0.1577,-0.1621,-0.1678,-0.1706,-0.1774,-0.1834,-0.1876,-0.1898,-0.1949,-0.2002,-0.1985,-0.2001,-0.2005,-0.2032,-0.2098,-0.1996,-0.1995,-0.201,-0.2148,-0.196,-0.1951,-0.2085,-0.2086,-0.2087,-0.2148,0,-0.1507,-0.1577,-0.1614,-0.1696,-0.1741,-0.179,-0.1854,-0.191,-0.1945,-0.1994,-0.202,-0.206,-0.2036,-0.205,-0.2077,-0.2091,-0.2119,-0.2083,-0.208,-0.208,-0.1897,-0.1954,-0.1839,-0.1866,-0.2155,-0.2156,-0.2157,0,-0.1503,-0.1564,-0.1641,-0.1755,-0.1778,-0.183,-0.1931,-0.1987,-0.2061,-0.2085,-0.212,-0.2121,-0.2181,-0.2133,-0.2191,-0.2166,-0.2159,-0.2162,-0.2164,-0.1951,-0.1905,-0.1835,-0.1869,-0.217,-0.2169,-0.2168,-0.2167,0,-0.1467,-0.1579,-0.1647,-0.1686,-0.1809,-0.186,-0.1923,-0.2006,-0.2068,-0.2132,-0.2173,-0.221,-0.2237,-0.2244,-0.2219,-0.222,-0.225,-0.2257,-0.2088,-0.2076,-0.1954,-0.1926,-0.2283,-0.2283,-0.2283,-0.2283,-0.2283,0,-0.1458,-0.1512,-0.164,-0.1681,-0.1776,-0.1857,-0.195,-0.2011,-0.2104,-0.2147,-0.2207,-0.2219,-0.2261,-0.2266,-0.2246,-0.2167,-0.2271,-0.2092,-0.2072,-0.1984,-0.1959,-0.2192,-0.2181,-0.2285,-0.2285,-0.2284,-0.2284,0,-0.1382,-0.147,-0.1555,-0.1701,-0.1757,-0.1812,-0.1971,-0.2034,-0.2126,-0.2182,-0.2204,-0.2262,-0.2218,-0.2231,-0.2227,-0.2185,-0.214,-0.208,-0.1958,-0.1918,-0.1961,-0.1955,-0.1943,-0.1937,-0.1932,-0.1927,-0.1924,0,-0.1347,-0.1381,-0.1544,-0.1614,-0.168,-0.1797,-0.1882,-0.2015,-0.2079,-0.2159,-0.2176,-0.2169,-0.2094,-0.2042,-0.1951,-0.1884,-0.196,-0.1747,-0.1709,-0.1941,-0.1925,-0.1926,-0.1927,-0.1628,-0.1622,-0.1618,-0.1614,0,-0.1269,-0.1316,-0.1389,-0.1533,-0.1639,-0.1755,-0.1879,-0.1907,-0.2015,-0.2068,-0.2027,-0.1969,-0.1894,-0.1724,-0.1635,-0.1582,-0.1747,-0.1639,-0.1946,-0.1684,-0.1635,-0.1621,-0.1634,-0.1571,-0.1575,-0.1579,-0.1581,-0.1583,-0.1191,-0.1207,-0.1307,-0.1431,-0.1564,-0.1632,-0.1638,-0.1745,-0.1767,-0.1755,-0.1786,-0.1688,-0.166,-0.1415,-0.132,-0.1269,-0.1384,-0.1375,-0.1396,-0.142,-0.1324,-0.1263,-0.1115,-0.1116,-0.1118,-0.1119,-0.112,0,-0.1106,-0.113,-0.1218,-0.1341,-0.1423,-0.1541,-0.1592,-0.1559,-0.1488,-0.1519,-0.1474,-0.1292,-0.117,-0.1144,-0.0999,-0.0958,-0.1022,-0.0919,-0.1032,-0.1073,-0.111,-0.1004,-0.0707,-0.0706,-0.0705,-0.0704,0,0,-0.106,-0.1076,-0.111,-0.1168,-0.1262,-0.1263,-0.123,-0.12,-0.119,-0.1095,-0.1072,-0.1135,-0.1135,-0.0934,-0.087,-0.0769,-0.0923,-0.0731,-0.1064,-0.1241,-0.1277,-0.1371,-0.125,0,0,0,0,0]},{"header":{"parameterUnit":"m.s-1","parameterCategory":2,"la1":30.2991,"la2":30.254,"lo1":-89.0895,"lo2":-89.0444,"dy":0.0017,"dx":0.0017,"nx":28,"ny":28,"refTime":"2024-05-05T03:00:00:Z","depth":"2","parameterNumber":3,"parameterNumberName":"V-component_of_CURRENTS"},"data":[0,0,0,0,0,0,0,0,0,0,0,0,0,0,0,0,0,0,0,0,0,0,0,0,0,0,0,0,0,0,0,0,0,0,0,0,0,0,0,0,0,0,0,0,0,0,0,0,0,0,0,0,0,0,0,0,0,0,-0.0005,-0.0004,0,0.0073,0.0074,0.0075,0.0081,0.0081,0.008,0.0079,0.0147,0.015,0.0152,0,0,0,0,0,0,0,0,0,0,0,0,0,-0.0068,-0.0067,-0.0005,-0.0004,-0.0003,0.0073,0.0074,0.0075,0.0082,0.0081,0.008,0.0079,0.0146,0.015,0.0153,0,0,0,0,0,0,0,0,0,0,0,0,0,-0.002,-0.0067,-0.0005,0.0009,0.0011,0.0073,0.0074,0.0076,0.0082,0.0081,0.0079,0.0078,0.0145,0.0149,0.0153,0.0202,0,0,0.0165,0.0167,0,0,0,0,0,0,0,0,-0.0023,-0.0018,0.0006,0.0008,0.0011,0.0066,0.0077,0.0118,0.0082,0.0055,0.0079,0.0078,0.012,0.0126,0.0144,0.0205,0.0208,0.0165,0.0168,0.0169,0.017,0,0,0,0,0,0,0,-0.0027,-0.0021,0.0026,0.0007,0.001,0.004,0.0045,0.0085,0.0093,0.0057,0.0058,0.0067,0.0121,0.014,0.0145,0.0209,0.0165,0.0169,0.0171,0.0173,0.0286,0.0287,0,0,0,0,0,0,-0.0039,-0.0024,0.0023,0.0028,-0.0009,0.0042,0.0047,0.005,0.0093,0.0099,0.0068,0.0067,0.0134,0.0141,0.0148,0.0165,0.0169,0.0173,0.0175,0.0286,0.0287,0.0287,0,0,0,0,0,0,-0.004,-0.0035,0.002,0.0004,0.0013,0.0044,0.0047,0.0052,0.0054,0.0102,0.0107,0.0063,0.0133,0.0142,0.0173,0.0169,0.0175,0.0178,0.0285,0.0286,0.0287,0.0228,0,0,0,0,0,0,-0.0043,-0.0037,-0.0047,0.0003,0.0014,0.0045,0.0049,0.0054,0.0063,0.0062,0.01,0.0105,0.0133,0.0167,0.0177,0.0175,0.0181,0.0284,0.0285,0.0287,0.0229,0.0227,0.0225,0,0,0,0,0,-0.0045,-0.005,-0.0048,-0.0042,0.0001,0.0045,0.0053,0.0071,0.0063,0.0066,0.0091,0.0103,0.0182,0.0171,0.0183,0.0181,0.0283,0.0285,0.0287,0.023,0.0228,0.0225,0,0,0,0,0,0,-0.0076,-0.0048,-0.0045,-0.0041,-0.0008,0.0045,0.0049,0.0063,0.0086,0.0078,0.0115,0.0124,0.0149,0.0181,0.0167,0.0221,0.0235,0.0238,0.0188,0.0186,0.0184,0.0162,0.0185,0,0,0,0,0,-0.0089,-0.0094,-0.005,-0.0049,-0.0035,0.0003,0.0019,0.0034,0.0066,0.0074,0.0099,0.0133,0.017,0.0187,0.0223,0.0256,0.0272,0.0264,0.0262,0.026,0.0252,0.0268,0.0265,0.0292,0.0292,0.0292,0,0,-0.01,-0.0087,-0.0089,-0.0058,-0.0033,-0.0017,0.0008,0.0029,0.0035,0.008,0.0086,0.0125,0.0178,0.0209,0.0223,0.023,0.0264,0.0262,0.0259,0.0252,0.0269,0.0266,0.0263,0.0293,0.0293,0.0293,0,0,-0.0118,-0.0113,-0.0121,-0.0098,-0.0067,-0.004,-0.004,0.0004,0.0012,0.0036,0.0069,0.0107,0.0153,0.0197,0.0224,0.0239,0.0251,0.0246,0.0218,0.0233,0.023,0.0228,0.0249,0.0249,0.0246,0.0246,0.0246,0,-0.0135,-0.0142,-0.0113,-0.0109,-0.0101,-0.0057,-0.0057,-0.003,0.0013,0.0025,0.0025,0.0107,0.015,0.0202,0.0203,0.0233,0.0237,0.0217,0.0227,0.0225,0.0224,0.0246,0.0246,0.0243,0.0243,0.0244,0.0244,0,-0.0153,-0.0161,-0.016,-0.0152,-0.0134,-0.0125,-0.0085,-0.0073,-0.0063,-0.0031,0.0008,0.0072,0.0118,0.0144,0.0175,0.0198,0.0202,0.0217,0.0223,0.0217,0.0242,0.0243,0.0239,0.024,0.0241,0.0242,0,0,-0.0184,-0.0179,-0.0181,-0.0196,-0.0162,-0.0151,-0.0138,-0.0108,-0.0109,-0.0061,-0.0056,0.0027,0.0059,0.0093,0.0145,0.0166,0.0168,0.0175,0.0177,0.0178,0.0192,0.024,0.0246,0.0167,0.0167,0.0167,0.0214,0,-0.0211,-0.0233,-0.0216,-0.0238,-0.0246,-0.021,-0.0206,-0.0173,-0.0142,-0.0123,-0.0045,-0.0018,0.0041,0.0053,0.0087,0.0131,0.0168,0.0154,0.0213,0.0216,0.0244,0.0249,0.0227,0.027,0.0215,0.0216,0.0216,0,-0.0235,-0.0254,-0.0283,-0.0303,-0.0303,-0.0306,-0.0301,-0.0288,-0.0231,-0.0211,-0.0154,-0.01,-0.0047,-0.0006,0.0076,0.0052,0.012,0.0166,0.0169,0.0233,0.0267,0.0271,0.0276,0.0219,0.0219,0.0219,0.0218,0,-0.0283,-0.0303,-0.034,-0.0342,-0.0346,-0.0358,-0.0359,-0.0315,-0.0317,-0.0266,-0.0277,-0.0183,-0.0162,-0.0081,0.0042,0.0032,0.0131,0.0134,0.026,0.0265,0.0271,0.0276,0.0212,0.0212,0.0212,0.0212,0.0212,0,-0.0322,-0.0352,-0.0372,-0.0391,-0.0447,-0.042,-0.0456,-0.0436,-0.041,-0.0413,-0.0333,-0.0312,-0.0189,-0.0101,0.0007,0.0142,0.0113,0.0254,0.0279,0.0253,0.0256,0.0231,0.0233,0.0214,0.0213,0.0213,0.0213,0,-0.0362,-0.0372,-0.0423,-0.0453,-0.0469,-0.0508,-0.0538,-0.0557,-0.0533,-0.0539,-0.0536,-0.0432,-0.0324,-0.0165,-0.0013,0.0093,0.0223,0.0301,0.0272,0.0293,0.0347,0.0345,0.039,0.0392,0.0394,0.0395,0.0397,0,-0.0383,-0.0411,-0.0478,-0.0528,-0.0548,-0.0599,-0.0636,-0.062,-0.0639,-0.0597,-0.0611,-0.0496,-0.0387,-0.0145,0.0066,0.0272,0.0295,0.038,0.0374,0.0345,0.0364,0.036,0.0356,0.0359,0.0359,0.036,0.0361,0,-0.0426,-0.045,-0.05,-0.0606,-0.0666,-0.0725,-0.0773,-0.079,-0.0762,-0.076,-0.0691,-0.0593,-0.0346,-0.0106,0.0177,0.0296,0.0331,0.04,0.0371,0.0325,0.0322,0.0339,0.0334,0.0367,0.0366,0.0365,0.0365,0.0365,-0.0458,-0.0514,-0.059,-0.0691,-0.0768,-0.0826,-0.0853,-0.0877,-0.0879,-0.0826,-0.0723,-0.0563,-0.0333,0.0063,0.0256,0.0426,0.0415,0.0458,0.0453,0.0447,0.0443,0.0444,0.0511,0.0512,0.0512,0.0512,0.0512,0,-0.0495,-0.0568,-0.0671,-0.0783,-0.0876,-0.0896,-0.0935,-0.0929,-0.0911,-0.0821,-0.0721,-0.0453,-0.0172,0.0063,0.0341,0.0502,0.0473,0.0522,0.0457,0.045,0.0445,0.0438,0.0506,0.0506,0.0507,0.0507,0,0,-0.052,-0.0624,-0.0687,-0.0853,-0.0931,-0.0987,-0.099,-0.0968,-0.09,-0.0789,-0.0656,-0.0453,-0.0161,0.0038,0.0241,0.0385,0.0368,0.0389,0.0378,0.027,0.0263,0.0395,0.0376,0,0,0,0,0]}],[{"header":{"parameterUnit":"m.s-1","parameterCategory":2,"la1":30.2991,"la2":30.254,"lo1":-89.0895,"lo2":-89.0444,"dy":0.0017,"dx":0.0017,"nx":28,"ny":28,"refTime":"2024-05-05T03:00:00:Z","depth":"4","parameterNumber":2,"parameterNumberName":"U-component_of_CURRENTS"},"data":[0,0,0,0,0,0,0,0,0,0,0,0,0,0,0,0,0,0,0,0,0,0,0,0,0,0,0,0,0,0,0,0,0,0,0,0,0,0,0,0,0,0,0,0,0,0,0,0,0,0,0,0,0,0,0,0,0,0,-0.0633,-0.0633,0,-0.066,-0.066,-0.066,-0.0668,-0.0668,-0.0668,-0.0668,-0.0694,-0.0694,-0.0695,0,0,0,0,0,0,0,0,0,0,0,0,0,-0.0582,-0.0582,-0.0633,-0.0633,-0.0634,-0.066,-0.066,-0.0661,-0.0668,-0.0668,-0.0668,-0.0668,-0.0693,-0.0694,-0.0695,0,0,0,0,0,0,0,0,0,0,0,0,0,-0.0604,-0.0583,-0.0633,-0.0642,-0.0643,-0.066,-0.066,-0.0661,-0.0668,-0.0668,-0.0668,-0.0668,-0.0693,-0.0694,-0.0695,-0.0701,0,0,-0.0698,-0.0699,0,0,0,0,0,0,0,0,-0.0603,-0.0606,-0.064,-0.0641,-0.0643,-0.0662,-0.0652,-0.0675,-0.0668,-0.0657,-0.0668,-0.0668,-0.0684,-0.0686,-0.0689,-0.0702,-0.0703,-0.0698,-0.0699,-0.0699,-0.0699,0,0,0,0,0,0,0,-0.0601,-0.0605,-0.0642,-0.0641,-0.0642,-0.0643,-0.0646,-0.0656,-0.0669,-0.0658,-0.0659,-0.0665,-0.0684,-0.0688,-0.0689,-0.0704,-0.0698,-0.0699,-0.07,-0.07,-0.0771,-0.0772,0,0,0,0,0,0,-0.0602,-0.0603,-0.0641,-0.0643,-0.0624,-0.0644,-0.0647,-0.0655,-0.0669,-0.0671,-0.0665,-0.0665,-0.0686,-0.0688,-0.069,-0.0747,-0.0699,-0.07,-0.0701,-0.077,-0.0771,-0.0773,0,0,0,0,0,0,-0.0601,-0.0605,-0.064,-0.0625,-0.063,-0.0645,-0.0653,-0.0655,-0.0668,-0.0674,-0.0676,-0.0677,-0.0686,-0.0689,-0.0717,-0.0746,-0.0701,-0.0701,-0.0768,-0.077,-0.0772,-0.0829,0,0,0,0,0,0,-0.0599,-0.0604,-0.0613,-0.0625,-0.0631,-0.066,-0.0653,-0.0656,-0.0672,-0.0673,-0.0685,-0.0687,-0.0686,-0.0715,-0.0718,-0.0747,-0.0702,-0.0767,-0.0769,-0.0771,-0.0826,-0.0833,-0.0839,0,0,0,0,0,-0.0597,-0.0609,-0.0614,-0.0619,-0.0641,-0.066,-0.0664,-0.0673,-0.0673,-0.0684,-0.0697,-0.0687,-0.0732,-0.0717,-0.072,-0.075,-0.0765,-0.0768,-0.0771,-0.0823,-0.0832,-0.0839,0,0,0,0,0,0,-0.0589,-0.0612,-0.0617,-0.0634,-0.0651,-0.0663,-0.0674,-0.068,-0.0698,-0.0701,-0.0703,-0.0707,-0.0742,-0.0737,-0.0721,-0.0777,-0.0747,-0.0751,-0.0786,-0.0794,-0.0801,-0.081,-0.0703,0,0,0,0,0,-0.0592,-0.0608,-0.0628,-0.0641,-0.0652,-0.0665,-0.0675,-0.0683,-0.0698,-0.0706,-0.0719,-0.0734,-0.0754,-0.0767,-0.078,-0.081,-0.0801,-0.0831,-0.0838,-0.0843,-0.0853,-0.0856,-0.0863,-0.0782,-0.0782,-0.0782,0,0,-0.0591,-0.0607,-0.0615,-0.0641,-0.0653,-0.0674,-0.0671,-0.0691,-0.0715,-0.0706,-0.0746,-0.0757,-0.0767,-0.0804,-0.0819,-0.0806,-0.0864,-0.0847,-0.0852,-0.0858,-0.0859,-0.0867,-0.0874,-0.0784,-0.0784,-0.0783,0,0,-0.0594,-0.0613,-0.0627,-0.0647,-0.0673,-0.0685,-0.0694,-0.0719,-0.0738,-0.077,-0.0779,-0.0809,-0.0832,-0.0855,-0.0865,-0.0916,-0.0897,-0.0921,-0.0966,-0.0969,-0.0975,-0.0981,-0.0988,-0.0993,-0.0927,-0.0927,-0.0927,0,-0.059,-0.0612,-0.0633,-0.0655,-0.0675,-0.0693,-0.0714,-0.0739,-0.0772,-0.0794,-0.0788,-0.0846,-0.0856,-0.091,-0.0936,-0.0932,-0.093,-0.0934,-0.0977,-0.0982,-0.0987,-0.0992,-0.0998,-0.093,-0.093,-0.0929,-0.0929,0,-0.0602,-0.0626,-0.0637,-0.0673,-0.07,-0.072,-0.076,-0.079,-0.081,-0.0833,-0.0889,-0.0911,-0.0942,-0.0959,-0.0966,-0.102,-0.1007,-0.0982,-0.0955,-0.0999,-0.1002,-0.1006,-0.0934,-0.0933,-0.0932,-0.0932,0,0,-0.0569,-0.0632,-0.0635,-0.0659,-0.0711,-0.0732,-0.0783,-0.083,-0.0865,-0.0902,-0.0946,-0.1001,-0.1014,-0.1029,-0.1048,-0.1069,-0.1109,-0.1051,-0.105,-0.1056,-0.1123,-0.1056,-0.1054,-0.109,-0.1091,-0.1092,-0.1114,0,-0.0566,-0.0604,-0.0645,-0.0689,-0.0711,-0.076,-0.0808,-0.0859,-0.09,-0.0949,-0.0988,-0.1035,-0.1041,-0.1067,-0.109,-0.1108,-0.1123,-0.1106,-0.1082,-0.1081,-0.1014,-0.1058,-0.1095,-0.1117,-0.1118,-0.1119,-0.1119,0,-0.0557,-0.0587,-0.0626,-0.07,-0.0716,-0.0751,-0.0828,-0.0878,-0.0955,-0.0991,-0.1044,-0.107,-0.1137,-0.1116,-0.1165,-0.1154,-0.1147,-0.115,-0.115,-0.107,-0.1023,-0.1063,-0.1127,-0.1127,-0.1126,-0.1126,-0.1125,0,-0.0505,-0.0574,-0.0604,-0.0627,-0.0712,-0.0747,-0.0798,-0.0882,-0.0932,-0.1023,-0.1065,-0.1124,-0.1163,-0.1171,-0.1184,-0.1179,-0.1211,-0.1192,-0.1123,-0.1118,-0.1145,-0.1139,-0.1205,-0.1205,-0.1205,-0.1205,-0.1205,0,-0.0478,-0.0504,-0.0583,-0.0596,-0.0638,-0.0724,-0.0787,-0.0845,-0.0943,-0.1011,-0.1085,-0.1147,-0.1178,-0.12,-0.1196,-0.1176,-0.1212,-0.1143,-0.1121,-0.117,-0.1166,-0.1149,-0.1142,-0.1205,-0.1205,-0.1205,-0.1205,0,-0.0416,-0.0466,-0.0497,-0.0581,-0.0608,-0.064,-0.0758,-0.0815,-0.0924,-0.1014,-0.1048,-0.1161,-0.1209,-0.1214,-0.1229,-0.1187,-0.1174,-0.1146,-0.1209,-0.1188,-0.108,-0.1076,-0.1089,-0.1087,-0.1085,-0.1084,-0.1083,0,-0.039,-0.0398,-0.0459,-0.0478,-0.0516,-0.0588,-0.0644,-0.0771,-0.0842,-0.1027,-0.1063,-0.1152,-0.1211,-0.1194,-0.1198,-0.1163,-0.114,-0.1119,-0.1102,-0.1092,-0.107,-0.1069,-0.1067,-0.108,-0.1079,-0.1079,-0.1078,0,-0.0334,-0.035,-0.037,-0.0393,-0.0442,-0.0515,-0.061,-0.0657,-0.0831,-0.0931,-0.1072,-0.1119,-0.1166,-0.1175,-0.1135,-0.1113,-0.1131,-0.11,-0.1103,-0.1087,-0.108,-0.106,-0.1061,-0.1072,-0.1073,-0.1073,-0.1074,0,-0.0282,-0.0272,-0.0286,-0.031,-0.0362,-0.0434,-0.0505,-0.063,-0.0718,-0.0936,-0.0978,-0.1097,-0.118,-0.115,-0.1128,-0.1085,-0.1072,-0.1031,-0.1038,-0.1045,-0.1014,-0.0997,-0.0956,0,0,0,0,0,-0.0229,-0.0213,-0.0219,-0.0238,-0.029,-0.0333,-0.048,-0.0575,-0.074,-0.0818,-0.0905,-0.0963,-0.1005,-0.1057,-0.0997,-0.1054,-0.1028,-0.0977,-0.0974,-0.1037,-0.1044,-0.1007,0,0,0,0,0,0,-0.0192,-0.0182,-0.0182,-0.0174,-0.0189,-0.0259,-0.036,-0.0489,-0.0554,-0.0725,-0.0753,-0.0874,-0.0906,-0.0999,-0.0962,-0.0966,-0.0941,-0.1032,-0.1029,-0.1033,-0.104,-0.1045,-0.101,0,0,0,0,0]},{"header":{"parameterUnit":"m.s-1","parameterCategory":2,"la1":30.2991,"la2":30.254,"lo1":-89.0895,"lo2":-89.0444,"dy":0.0017,"dx":0.0017,"nx":28,"ny":28,"refTime":"2024-05-05T03:00:00:Z","depth":"4","parameterNumber":3,"parameterNumberName":"V-component_of_CURRENTS"},"data":[0,0,0,0,0,0,0,0,0,0,0,0,0,0,0,0,0,0,0,0,0,0,0,0,0,0,0,0,0,0,0,0,0,0,0,0,0,0,0,0,0,0,0,0,0,0,0,0,0,0,0,0,0,0,0,0,0,0,0.0043,0.0043,0,0.0068,0.0068,0.0069,0.0107,0.0107,0.0108,0.0108,0.0161,0.0162,0.0163,0,0,0,0,0,0,0,0,0,0,0,0,0,0.0048,0.0048,0.0043,0.0043,0.0043,0.0068,0.0068,0.0069,0.0107,0.0107,0.0108,0.0109,0.0161,0.0162,0.0163,0,0,0,0,0,0,0,0,0,0,0,0,0,0.0058,0.0047,0.0042,0.0063,0.0065,0.0068,0.0069,0.0069,0.0107,0.0107,0.0108,0.0109,0.0161,0.0162,0.0164,0.0157,0,0,0.0168,0.0168,0,0,0,0,0,0,0,0,0.0058,0.0058,0.006,0.0062,0.0064,0.0083,0.009,0.0099,0.0106,0.0093,0.0108,0.0109,0.0136,0.014,0.0145,0.016,0.0162,0.0168,0.0169,0.0169,0.017,0,0,0,0,0,0,0,0.0057,0.0057,0.0054,0.006,0.0063,0.0079,0.0081,0.0092,0.0112,0.0094,0.0096,0.0096,0.0138,0.0143,0.0147,0.0163,0.0168,0.0169,0.017,0.0171,0.0187,0.0187,0,0,0,0,0,0,0.0048,0.0056,0.0054,0.0055,0.0061,0.0078,0.008,0.0078,0.0111,0.0116,0.0096,0.0098,0.0141,0.0145,0.0149,0.0144,0.0169,0.0171,0.0172,0.0187,0.0187,0.0186,0,0,0,0,0,0,0.0048,0.0047,0.0053,0.0055,0.0057,0.0076,0.0074,0.0078,0.0086,0.0112,0.0118,0.0099,0.0141,0.0147,0.0159,0.0147,0.0171,0.0173,0.0188,0.0187,0.0187,0.0135,0,0,0,0,0,0,0.0048,0.0047,0.0044,0.0054,0.0056,0.0049,0.0073,0.0078,0.0084,0.0087,0.0116,0.0122,0.0142,0.0157,0.0161,0.0149,0.0174,0.0188,0.0188,0.0187,0.0137,0.0133,0.0129,0,0,0,0,0,0.0048,0.0038,0.0044,0.0043,0.0051,0.0048,0.0051,0.0069,0.0083,0.0081,0.0104,0.0121,0.0155,0.0158,0.0162,0.0151,0.0189,0.0188,0.0187,0.0139,0.0134,0.0129,0,0,0,0,0,0,0.0041,0.0041,0.0048,0.0039,0.0041,0.0054,0.0054,0.0065,0.0081,0.0087,0.0116,0.0123,0.0129,0.0147,0.015,0.0154,0.0174,0.0174,0.0136,0.0132,0.0127,0.0128,0.0175,0,0,0,0,0,0.0036,0.0029,0.0032,0.0026,0.0026,0.0039,0.0042,0.0051,0.0065,0.0073,0.0094,0.0115,0.0127,0.0136,0.015,0.0151,0.018,0.0147,0.0143,0.0139,0.0144,0.0188,0.0189,0.0183,0.0183,0.0183,0,0,0.0032,0.0031,0.0028,0.0024,0.003,0.0017,0.0043,0.0042,0.0031,0.0075,0.0075,0.01,0.0124,0.0127,0.0131,0.0141,0.015,0.0138,0.0135,0.0141,0.0188,0.0188,0.0189,0.0183,0.0183,0.0183,0,0,0.0014,0.0019,0.0004,0.0,-0.0001,0.0003,-0.0,0.0009,0.0016,0.0014,0.0045,0.0067,0.008,0.0101,0.0111,0.0093,0.0126,0.0093,0.0072,0.0115,0.0116,0.0118,0.013,0.0133,0.0091,0.0091,0.0091,0,0.001,-0.0011,-0.0,-0.0019,-0.0027,-0.0008,-0.003,-0.0025,-0.0012,-0.0009,0.0007,0.0047,0.0067,0.0081,0.0075,0.0083,0.0106,0.0088,0.011,0.0113,0.0115,0.0127,0.0131,0.0088,0.0088,0.0089,0.0089,0,-0.0023,-0.004,-0.0049,-0.0068,-0.0076,-0.009,-0.0089,-0.009,-0.0078,-0.0068,-0.0049,-0.0008,0.0018,0.0025,0.0043,0.0066,0.0074,0.01,0.0123,0.0113,0.0126,0.0131,0.0084,0.0085,0.0086,0.0087,0,0,-0.003,-0.0067,-0.0069,-0.0093,-0.0105,-0.0118,-0.0135,-0.0144,-0.0149,-0.0123,-0.0116,-0.0084,-0.0046,-0.003,0.0006,0.0046,0.0072,0.0077,0.008,0.0087,0.0148,0.0142,0.0147,0.0107,0.0108,0.0109,0.0142,0,-0.0058,-0.011,-0.0117,-0.0166,-0.0192,-0.0187,-0.0205,-0.0208,-0.0196,-0.0182,-0.0129,-0.0107,-0.0073,-0.005,-0.0008,0.0067,0.0088,0.006,0.0159,0.0161,0.0157,0.0154,0.0113,0.0146,0.0147,0.0148,0.0149,0,-0.0085,-0.012,-0.0175,-0.0222,-0.0231,-0.0255,-0.0275,-0.0287,-0.0263,-0.0246,-0.0204,-0.016,-0.0096,-0.0063,0.0047,0.003,0.0075,0.0128,0.0132,0.0152,0.0166,0.0166,0.0158,0.0158,0.0157,0.0156,0.0156,0,-0.01,-0.0159,-0.0207,-0.0223,-0.0269,-0.029,-0.0307,-0.0304,-0.0311,-0.0273,-0.0256,-0.0182,-0.0128,-0.0047,0.0051,0.0055,0.017,0.019,0.0215,0.0214,0.0233,0.0232,0.0246,0.0246,0.0246,0.0246,0.0246,0,-0.0127,-0.0163,-0.022,-0.0248,-0.0303,-0.0318,-0.0356,-0.0355,-0.0342,-0.0347,-0.0281,-0.0251,-0.0116,-0.0039,0.0041,0.0145,0.0159,0.0211,0.023,0.0206,0.0201,0.0235,0.0233,0.0247,0.0247,0.0247,0.0247,0,-0.0129,-0.0167,-0.0227,-0.029,-0.0313,-0.0348,-0.0393,-0.0413,-0.0389,-0.0385,-0.037,-0.0284,-0.0176,-0.0065,0.0075,0.0132,0.023,0.0249,0.0193,0.0207,0.0241,0.0236,0.029,0.0291,0.0291,0.0291,0.0291,0,-0.0138,-0.0168,-0.0254,-0.03,-0.0332,-0.0387,-0.0424,-0.0432,-0.0441,-0.041,-0.0399,-0.0305,-0.0242,-0.0056,0.0067,0.021,0.0225,0.0261,0.0272,0.0237,0.025,0.0244,0.0239,0.0291,0.0291,0.0292,0.0292,0,-0.0149,-0.0174,-0.0224,-0.0315,-0.0375,-0.0441,-0.0484,-0.0493,-0.0493,-0.0476,-0.0423,-0.0332,-0.0214,-0.0063,0.0046,0.0148,0.0243,0.0263,0.0264,0.0275,0.0239,0.025,0.0245,0.0292,0.0292,0.0292,0.0292,0,-0.0145,-0.0182,-0.0247,-0.0325,-0.0407,-0.0472,-0.0498,-0.0512,-0.0516,-0.0476,-0.0463,-0.0342,-0.0266,-0.0097,0.0004,0.0111,0.0141,0.0169,0.0175,0.0176,0.0141,0.0078,0.0098,0,0,0,0,0,-0.0138,-0.0182,-0.0258,-0.0347,-0.0427,-0.0474,-0.053,-0.0543,-0.0542,-0.0514,-0.0489,-0.0388,-0.0222,-0.0138,-0.0032,0.0015,0.0163,0.0142,0.0198,0.0295,0.0295,0.0274,0,0,0,0,0,0,-0.0139,-0.0199,-0.0248,-0.0344,-0.0407,-0.049,-0.0532,-0.0537,-0.0511,-0.0496,-0.0402,-0.0364,-0.019,-0.0278,-0.0027,0.0006,0.0054,0.0224,0.0225,0.0296,0.0295,0.0295,0.0273,0,0,0,0,0]}]]